Regional Weather Roundup
Issued by NWS Wilmington, NC

Home | Current Version | Previous Version | Text Only | Print | Product List | Glossary On
Versions: 1 2 3 4 5 6 7 8 9 10 11 12 13 14 15 16 17 18 19 20 21 22 23 24 25 26 27 28 29 30 31 32 33 34 35 36 37 38 39 40 41 42 43 44 45 46 47 48 49 50
000
ASUS42 KILM 250410
RWRILM
RWRILM
REGIONAL HOURLY WEATHER ROUNDUP
NATIONAL WEATHER SERVICE WILMINGTON NC
1100 PM EST SAT JAN 24 2015

NOTE: "FAIR" INDICATES FEW OR NO CLOUDS BELOW 12,000 FEET WITH NO
SIGNIFICANT WEATHER AND/OR OBSTRUCTIONS TO VISIBILITY.

...............WFO WILMINGTON COUNTY WARNING AREA...............

......COASTAL NC AND SC COUNTIES......

CITY           SKY/WX    TMP DP  RH WIND       PRES   REMARKS
WILMINGTON     CLEAR     42  40  92 W7        29.83S
SOUTHPORT      CLEAR     47  44  88 W7        29.85S
N MYRTLE BEACH CLEAR     45  39  79 W6        29.86R
MYRTLE BEACH   CLEAR     46  36  66 W12       29.89R

......INLAND NC AND SC COUNTIES.......

CITY           SKY/WX    TMP DP  RH WIND       PRES   REMARKS
LUMBERTON      CLEAR     37  36  96 CALM      29.84R
ELIZABETHTOWN  CLEAR     37  37  98 SW3       29.83R
WHITEVILLE     CLEAR     40  39  95 CALM      29.85R
FLORENCE       CLEAR     42  34  73 W8        29.87R
DARLINGTON     CLEAR     39  30  70 SW8       29.87R WCI  34

....................REST OF NORTH CAROLINA......................

.........EASTERN NC.........

CITY           SKY/WX    TMP DP  RH WIND       PRES   REMARKS
CAPE HATTERAS  CLEAR     45  41  86 W16G24    29.77R
JACKSONVILLE   CLEAR     37  34  87 SW3       29.82R
MOREHEAD CITY  CLEAR     46  40  79 W14       29.80R
KENANSVILLE    CLEAR     37  36  95 SW3       29.82R
NEW BERN       CLEAR     43  37  79 W5        29.81R
ELIZABETH CITY CLEAR     40  32  73 W12       29.74R WCI  33

.........CENTRAL NC.........

CITY           SKY/WX    TMP DP  RH WIND       PRES   REMARKS
RALEIGH DURHAM CLEAR     37  24  59 CALM      29.80R
ROCKY MOUNT    CLEAR     35  29  78 SW3       29.80R
ROANOKE RAPIDS NOT AVBL
FAYETTEVILLE   CLEAR     38  31  76 W6        29.81R WCI  33
HOFFMAN        CLEAR     31  29  95 SW1       29.84S

.........WESTERN NC.........

CITY           SKY/WX    TMP DP  RH WIND       PRES   REMARKS
CHARLOTTE      CLEAR     35  22  58 CALM      29.83R
GREENSBORO     CLEAR     36  24  62 W9        29.79R WCI  29
HICKORY        NOT AVBL
BOONE          NOT AVBL
ASHEVILLE      NOT AVBL

.....................REST OF SOUTH CAROLINA.....................

.........EASTERN SC.........

CITY           SKY/WX    TMP DP  RH WIND       PRES   REMARKS
CHARLESTON     CLEAR     43  33  68 W6        29.92R
BEAUFORT MCAS  CLEAR     45  32  60 W7        29.94S
HILTON HEAD    CLEAR     46  34  61 SW5       29.96S

.........CENTRAL SC.........

CITY           SKY/WX    TMP DP  RH WIND       PRES   REMARKS
COLUMBIA       CLEAR     42  28  57 W8        29.90R
ORANGEBURG     CLEAR     42  29  59 W9        29.91R
SUMTER SHAW    CLEAR     40  30  65 SW7       29.88R

.........WESTERN SC.........

CITY           SKY/WX    TMP DP  RH WIND       PRES   REMARKS
GREENVILLE     NOT AVBL
ROCK HILL      CLEAR     35  22  58 SW6       29.84R WCI  30
ANDERSON       CLEAR     41  25  53 W9        29.88F
CLEMSON        NOT AVBL
GREENWOOD      CLEAR     41  24  51 W9        29.89S


...................COASTAL AND OFFSHORE REPORTS..................

................LOCAL PIERS AND NC RESERVE................


STATION/POSITION TIME  SKY/WX   TEMP    WIND        PRES    VSBY
                                AIR SEA DIR/SP/G
                 (UTC)          (F)     (DEG/KT/KT) (MB)    (MI)
JOHNY MRCER PIER 0400            45 53  250/  6/  9 1009.4R
NC RESRV MASNBRO 0300            43     230/  3     1010.0S
OCEAN CREST PIER NOT AVBL
SPRINGMAID  PIER 0400            47 51  240/  9/ 13 1011.2R


................COASTAL AND OFFSHORE BUOYS................


STATION/POSITION TIME  SKY/WX   TEMP    WIND        PRES    VSBY
                                AIR SEA DIR/SP/G
                 (UTC)          (F)     (DEG/KT/KT) (MB)    (MI)
DIMNDSHOAL 41025 0400            53 71  290/ 25/ 31 1006.9R
WVE H/P(F/S)=  9/10 WND WVE H/P(F/S)=  7/ 7 SWL H/P/D(F/S/D)=  5/160/10

CAPE LOOKOUT     0300            49     270/ 17/ 21 1008.4R
ONSLOW BAY 41036 NOT AVBL
5 WRITEBCH 41038 0300            49 51  260/ 16/ 19 1009.6R
MASONBORO  41110 0400               52                N/A
WVE H/P(F/S)=  4/10 WND WVE H/P(F/S)=  3/10 SWL H/P/D(F/S/D)=  2/150/11

WILM HARBR 41108 0400               55                N/A
WVE H/P(F/S)=  5/10 WND WVE H/P(F/S)=  5/10 SWL H/P/D(F/S/D)=  2/160/11

27WRITEBCH 41037 NOT AVBL
FRYING PAN 41013 0400            56 66  270/ 21/ 27 1010.3F
WVE H/P(F/S)=  8/ 9 WND WVE H/P(F/S)=  7/ 8 SWL H/P/D(F/S/D)=  5/190/ 9

SUNST NRSH 41024 0300            51     270/ 14/ 16   N/A
CAPRS NRSH 41029 0300            51     290/ 16/ 17   N/A
EDISTO     41004 0400            56 70  290/ 23/ 27 1011.9R
WVE H/P(F/S)=  8/ 8 WND WVE H/P(F/S)=  7/ 8 SWL H/P/D(F/S/D)=  3/10



..........OFFSHORE BUOYS BEYOND 100 NM OFFSHORE...........
.....IN A TRIANGLE---HAT TO BERMUDA TO BAHAMAS TO HAT.....


STATION/POSITION TIME  SKY/WX   TEMP    WIND        PRES    VSBY
                                AIR SEA DIR/SP/G
                 (UTC)          (F)     (DEG/KT/KT) (MB)    (MI)
150E HAT   41001 NOT AVBL
W BERMUDA  41048 0303            70 72  270/ 23/ 31 1005.0R
WVE H/P(F/S)= 13/ 8 WND WVE H/P(F/S)= 10/ 8 SWL H/P/D(F/S/D)=  8/ 90/16

ATLANTIC S 41049 0343            75 75  170/ 16/ 19 1016.2F
WVE H/P(F/S)=  6/10 WND WVE H/P(F/S)=  3/ 5 SWL H/P/D(F/S/D)=  5/ 10/10

E BAHAMAS  41046 0340            77 79  190/ 14/ 16 1015.5F
WVE H/P(F/S)=  4/10 WND WVE H/P(F/S)=  3/ 6 SWL H/P/D(F/S/D)=  3/ 60/10

NE BAHAMAS 41047 0348            76 76  230/ 21/ 25 1011.6F
WVE H/P(F/S)=  7/ 6 WND WVE H/P(F/S)=  7/ 6 SWL H/P/D(F/S/D)=  2/ 70/10

120E CANVRL41010 0400            66 77  310/ 19/ 27 1013.6R
WVE H/P(F/S)= 10/ 8 WND WVE H/P(F/S)= 10/ 8


END


USA.gov is the U.S. government's official web portal to all federal, state and local government web resources and services.